sat.trackr.live / text

‹ back to catalog

STARLINK-35224

NORAD 65811 · 2025-218W

PAYLOAD ACTIVE UNKNOWN

§ Identity

Operator
Country
US
Launch date
2025-09-26
Launch site
AFWTR
Launch vehicle
Mass (kg)
RCS (m²)

Purposes: comms

External: N2YO · Heavens-Above · Gunter

§ Orbital elements

Epoch: 2026-09-20T13:57:38.760768Z

Period
93.91 min
Inclination
97.2841°
Eccentricity
0.0001924
Mean motion
15.33453971 rev/d
Perigee alt
464.2 km
Apogee alt
466.8 km
Semi-major
6,843.7 km
B*
3.3651e-4
RAAN
120.9206°
Arg perigee
87.1030°
Mean anomaly
273.0433°
Rev number
5,434

§ Raw data

STARLINK-352241 65811U 25218W   26263.58169862  .00010808  00000+0  33651-3 0  99902 65811  97.2841 120.9206 0001924  87.1030 273.0433 15.33453971 54348

JSON: /api/v1/satellites/65811 · /tle

For live sub-satellite position, see the globe view (requires WebGL).

§ Visibility from observer

Set your observer location to see the next 7 days of passes ≥ 10°. The values pass through the URL so the page stays shareable.

No JS? Fill the form by hand. The geolocation button needs JavaScript.